This demonstration page uses our WeatherBlox Daily Observations layout. Learn more.

Left ArrowRight Arrow

39.92423, -83.80882

Hourly Observations for May 4, 2020

Temp ( °F °C ) Dew Point ( °F °C ) Humidity (%) Winds ( mph kmh ) Pressure ( in mb ) Visibility ( mi km ) Precip ( " mm )
12:56 am 00:56 Clear 50 10 43 6.1 77 77 WNW 9 15 29.93 1014 10 16.0934 0.21 5.334
1:56 am 01:56 Clear 49 9.4 43 6.1 80 80 WNW 8 13 29.93 1014 10 16.0934 0.12 3.048
2:56 am 02:56 Clear 49 9.4 43 6.1 80 80 WNW 9 15 29.94 1014 10 16.0934 0.38 9.652
3:56 am 03:56 Clear 47 8.3 43 6.1 86 86 W 6 9 29.93 1014 10 16.0934 1.29 32.766
4:56 am 04:56 Clear 45 7.2 42 5.6 90 90 W 7 11 29.95 1014 10 16.0934 0.11 2.794
5:56 am 05:56 Clear 47 8.3 42 5.6 83 83 W 8 13 29.96 1015 10 16.0934 0.15 3.81
6:56 am 06:56 Sunny 47 8.3 42 5.6 83 83 WNW 8 13 29.98 1015 10 16.0934 0 0
7:56 am 07:56 Sunny 50 10 44 6.7 80 80 NNW 8 13 30.02 1017 10 16.0934 0.01 0.254
8:56 am 08:56 Sunny 53 11.7 44 6.7 72 72 N 8 13 30.04 1017 10 16.0934 0 0
9:56 am 09:56 Sunny 54 12.2 44 6.7 69 69 NE 12 19 30.05 1018 10 16.0934 0 0
10:56 am 10:56 Sunny 56 13.3 43 6.1 62 62 NNW 10 17 30.08 1019 10 16.0934 0 0
11:56 am 11:56 Sunny 57 13.9 44 6.7 62 62 NNE 12 19 30.08 1019 10 16.0934 0 0
12:56 pm 12:56 Sunny 59 15 41 5 51 51 NNE 10 17 30.09 1019 10 16.0934 0 0
1:56 pm 13:56 Sunny 60 15.6 41 5 50 50 NE 10 17 30.06 1018 10 16.0934 0 0
2:56 pm 14:56 Sunny 62 16.7 43 6.1 50 50 NNE 8 13 30.04 1017 10 16.0934 0 0
3:56 pm 15:56 Sunny 63 17.2 40 4.4 43 43 VRB 3 6 30.04 1017 10 16.0934 0 0
4:56 pm 16:56 Sunny 61 16.1 40 4.4 46 46 NNE 6 9 30.06 1018 10 16.0934 0 0
5:56 pm 17:56 Sunny 61 16.1 41 5 48 48 NNE 7 11 30.06 1018 10 16.0934 0 0
6:56 pm 18:56 Sunny 60 15.6 42 5.6 52 52 ENE 5 7 30.06 1018 10 16.0934 0 0
7:56 pm 19:56 Sunny 58 14.4 42 5.6 56 56 ENE 5 7 30.06 1018 10 16.0934 0 0
8:56 pm 20:56 Clear 55 12.8 44 6.7 67 67 E 8 13 30.03 1017 7 11.26538 0 0
9:56 pm 21:56 Clear 54 12.2 43 6.1 67 67 E 12 19 30.01 1016 10 16.0934 0.02 0.508
10:56 pm 22:56 Mostly Cloudy 53 11.7 43 6.1 69 69 NE 9 15 30.03 1017 10 16.0934 0 0
11:56 pm 23:56 Clear 51 10.6 42 5.6 71 71 ENE 16 26 30.01 1016 10 16.0934 0 0

Powered by AerisWeather